{"data":{"norad_id":58848,"epoch":"2026-09-22T23:04:35.317632Z","epoch_age_seconds":39640,"freshness":"FRESH","line1":"1 58848U 23174DH  26265.96151988  .00001463  00000+0  79091-4 0  9991","line2":"2 58848  97.3307 322.0919 0011313  35.6778 324.5209 15.16162243158713","mean_motion":15.16162243,"eccentricity":0.0011313,"inclination_deg":97.3307,"raan_deg":322.0919,"arg_perigee_deg":35.6778,"mean_anomaly_deg":324.5209,"bstar":7.9091e-5,"rev_number":15871,"period_min":94.976642944933,"perigee_km":509.65136371323,"apogee_km":525.25332416282,"semimajor_km":6895.589343938,"source":"CELESTRAK","updated_at":"2026-09-23T09:00:19.015208Z"}}